Wind_Speed
16 16 15 15 16 16 16 16 16 16 16 16 16 16 16 17 17 17 18 18 18 17 16 16 15 15 16 17 17 17 18 20 19 22 26 20 13 17 19 18 16 14 17 21 20 19 26 27 27 26 26 24 14 16 18 11 7 6 2 2 3 3 3 3 4 3 1 2 7 14 20 16 11 14 14 11 8 13 20 8 10 13 4 10 15 20 34 32
17 17 17 17 17 17 17 17 17 17 17 17 17 17 16 16 17 17 17 18 18 18 18 17 16 15 15 16 17 17 18 19 20 25 25 16 14 20 20 20 21 19 17 22 23 24 30 32 31 28 26 21 11 13 15 12 11 7 2 1 4 4 4 4 5 1 6 3 10 13 19 19 17 19 18 11 7 14 14 5 11 10 6 13 17 27 35 33
17 18 18 19 18 18 18 18 18 18 19 18 18 18 18 18 17 17 17 17 18 18 18 17 16 16 15 16 16 16 17 18 22 24 16 9 12 16 18 20 22 21 18 21 22 25 30 30 32 28 24 17 11 13 13 11 10 9 5 2 6 6 6 11 10 7 11 7 11 10 15 14 18 23 18 11 9 14 11 10 15 13 17 20 24 34 35 34
19 19 19 19 19 19 19 19 19 19 19 20 20 19 19 19 19 18 18 17 17 18 19 18 17 16 15 15 14 14 15 16 18 14 5 5 7 9 16 21 23 22 17 17 17 22 27 27 31 28 20 12 11 14 12 13 10 7 8 4 5 4 5 13 8 6 10 11 15 12 12 9 18 21 17 16 10 7 13 22 25 24 27 27 31 36 36 37
20 20 20 20 20 20 20 20 20 20 20 20 20 20 21 20 20 20 19 18 18 18 18 18 16 16 16 15 14 12 10 9 5 4 4 4 4 6 13 20 24 24 20 17 14 20 27 28 30 25 16 8 10 11 10 18 13 5 10 11 11 5 6 14 4 2 6 9 13 11 11 13 19 17 19 22 12 10 22 32 31 31 32 32 37 38 38 39
20 21 21 21 22 22 22 22 21 21 21 21 21 21 21 21 21 21 20 20 19 19 18 17 16 15 16 15 14 11 5 4 5 7 3 5 3 3 7 18 25 25 24 20 17 22 27 30 29 21 13 7 9 8 7 18 17 6 8 12 16 11 11 20 10 1 5 4 13 12 12 18 18 13 21 27 17 11 23 32 29 30 31 34 40 40 40 41
21 21 21 22 22 23 23 24 23 23 23 23 22 22 21 22 22 22 22 20 20 19 19 19 16 15 15 14 13 10 10 16 12 5 9 10 5 3 4 18 25 25 25 22 21 25 28 31 27 19 12 5 7 9 7 13 17 11 8 9 13 13 16 24 20 10 5 5 13 14 11 16 17 12 18 27 22 7 12 27 28 29 32 35 40 41 41 42
21 21 22 22 22 22 23 24 24 25 25 24 24 23 23 23 23 23 22 21 20 19 20 19 17 15 14 13 13 9 16 24 13 7 13 12 7 3 8 19 25 25 25 24 23 25 28 30 28 19 10 5 6 7 10 9 9 11 10 9 9 14 19 24 25 19 9 9 12 13 11 18 23 15 14 26 24 9 10 25 28 30 34 38 42 42 41 41
21 22 22 22 22 23 23 23 24 24 25 25 26 25 25 24 23 23 22 22 20 19 20 19 17 16 14 14 11 8 19 23 15 14 13 12 10 7 13 20 24 25 23 22 23 24 26 29 30 21 7 7 8 4 9 8 5 9 13 13 12 16 22 23 23 24 13 10 13 12 10 20 25 12 9 21 22 11 14 26 29 33 36 40 42 42 42 42
22 22 23 23 23 23 23 23 23 24 25 25 26 26 26 26 25 24 23 22 20 19 19 19 18 16 15 14 7 6 16 13 6 9 8 12 13 11 17 21 23 24 23 22 23 25 25 23 28 25 8 6 10 7 9 8 5 8 12 15 17 19 24 23 20 25 17 8 17 15 9 20 24 12 6 16 21 16 21 29 31 35 37 40 42 42 42 41
24 24 24 24 24 24 24 24 24 24 25 25 26 27 27 26 25 24 23 21 20 19 19 19 18 16 15 14 12 11 14 9 7 7 8 13 13 12 17 22 23 23 22 23 25 25 22 17 22 24 10 7 7 6 10 11 10 13 14 12 16 17 20 21 18 24 16 6 20 20 10 15 17 13 11 18 24 22 27 31 33 36 36 38 40 41 41 40
25 26 26 26 26 26 26 25 25 25 25 25 26 27 26 26 24 24 23 22 20 18 19 19 17 17 15 17 25 23 15 13 14 11 8 11 12 10 14 19 21 21 20 22 25 23 22 19 20 23 12 6 5 0 6 10 13 17 14 9 12 10 13 16 14 19 12 4 19 18 4 5 11 14 14 21 27 27 30 33 33 35 36 36 37 38 40 40
26 26 27 27 28 28 28 28 27 26 26 26 27 27 26 25 23 23 22 20 19 17 18 17 16 17 13 17 27 25 16 15 16 17 15 11 10 8 11 19 21 20 20 19 20 21 22 21 22 27 18 6 5 2 5 4 4 9 7 4 6 6 8 9 8 12 8 4 17 18 1 5 12 15 15 23 30 30 29 31 32 33 33 35 35 36 39 40
26 27 27 28 29 29 30 30 29 28 27 27 27 26 24 23 21 20 19 17 16 15 16 16 15 14 15 21 25 21 18 20 22 22 20 17 14 9 11 19 21 21 21 20 19 19 22 23 21 22 19 12 6 4 6 5 1 3 2 2 2 2 6 5 1 4 2 4 18 18 4 8 10 11 18 27 33 33 29 30 32 33 32 34 36 36 38 39
28 28 28 28 29 29 30 31 30 28 27 28 26 24 22 20 18 17 15 14 12 12 13 13 14 13 13 22 25 20 18 20 23 23 21 21 21 17 13 17 22 21 20 21 21 18 20 24 21 14 12 14 11 6 5 4 2 1 1 4 2 2 6 8 2 6 5 5 16 15 5 6 5 10 23 30 34 34 30 30 32 33 33 34 36 37 37 38
30 29 29 29 29 29 30 30 30 29 28 27 24 21 19 17 15 13 11 9 6 6 8 10 13 12 7 13 15 15 17 16 15 17 21 23 23 21 15 15 19 20 20 21 20 15 13 16 18 15 11 8 6 3 2 4 4 1 2 4 4 3 4 6 4 5 8 4 8 11 4 3 3 10 24 30 33 33 28 29 32 33 33 34 36 36 36 36
32 32 31 31 30 29 29 30 30 29 27 25 21 17 16 15 11 9 6 6 6 1 4 6 8 8 9 11 9 9 11 11 10 12 18 22 24 23 19 17 17 20 20 19 17 13 10 10 10 9 9 5 3 5 3 6 7 2 2 3 4 4 4 5 6 5 4 3 4 9 7 5 2 8 22 29 32 30 26 28 31 32 33 34 34 35 36 36
33 34 33 33 32 30 30 29 30 29 26 22 19 15 14 12 10 11 9 8 8 1 2 5 8 3 10 12 10 7 4 4 8 11 14 18 21 22 22 21 18 19 18 12 12 13 10 9 7 3 4 5 4 7 7 6 6 4 4 3 4 4 5 6 6 4 1 2 5 6 8 7 3 6 18 28 33 30 26 29 32 32 33 33 33 35 36 38
33 34 34 34 33 32 30 29 30 28 22 18 17 14 11 10 10 11 11 11 9 3 3 6 12 5 6 7 8 10 8 6 7 10 13 16 18 20 22 21 20 20 15 7 6 12 12 5 5 6 5 8 8 9 9 3 6 7 6 4 4 5 6 7 6 4 1 3 6 6 8 9 6 8 14 24 31 29 26 27 28 29 30 32 33 35 36 39
33 33 34 35 34 34 31 30 30 23 19 20 18 12 9 11 7 6 13 20 18 16 16 16 18 20 19 15 12 10 8 8 9 10 12 14 18 20 22 19 15 15 11 6 5 11 14 6 6 9 7 8 8 8 9 4 5 6 4 3 5 4 7 8 5 5 2 2 6 7 8 9 8 10 13 22 27 23 22 22 24 28 29 32 33 34 38 42
33 32 34 34 34 35 31 32 29 18 19 23 16 11 12 12 6 7 20 26 24 21 26 28 27 32 34 29 23 18 12 10 12 14 11 14 19 18 21 19 10 7 8 8 7 8 12 9 10 10 8 7 8 8 9 7 7 6 5 4 5 6 8 8 6 6 2 1 6 7 7 10 10 9 11 19 21 18 22 23 24 30 31 33 35 36 40 40
33 32 35 34 34 34 31 33 25 13 20 18 9 13 14 14 11 10 14 18 28 30 28 29 30 37 40 35 33 29 18 12 15 19 14 15 21 17 17 16 9 6 7 7 6 5 7 9 9 10 8 8 7 8 9 9 7 6 5 4 5 6 4 7 8 6 2 3 7 9 7 10 8 7 10 16 18 22 32 33 33 36 33 33 36 38 40 36
33 33 35 34 35 33 31 32 19 10 20 13 4 13 15 16 17 15 10 11 25 31 28 29 31 38 40 36 34 29 21 14 17 23 21 19 21 21 18 13 10 8 7 8 9 7 6 7 9 11 9 9 8 7 9 7 5 5 5 5 6 4 2 4 6 5 3 4 5 6 5 6 3 4 8 16 20 21 29 34 35 38 38 39 42 42 41 38
32 32 33 34 35 33 31 29 15 11 20 10 2 11 15 18 18 17 13 8 14 19 24 27 26 31 33 28 24 26 27 20 17 23 26 26 22 18 17 13 10 9 9 13 13 10 7 6 9 13 11 12 10 7 8 6 5 5 6 7 7 4 4 6 3 5 5 3 3 2 3 5 2 6 7 12 16 15 19 25 26 30 35 38 37 37 39 41
32 32 33 34 35 35 32 25 16 18 20 6 2 10 14 17 17 16 11 6 8 9 12 13 15 19 20 16 15 22 22 18 25 30 26 30 28 15 10 13 11 9 13 13 10 10 10 5 9 12 10 12 12 9 9 8 5 6 8 11 9 5 5 5 2 4 5 5 4 2 2 6 4 7 8 8 10 12 15 18 22 27 30 32 32 32 37 39
31 32 32 33 35 36 31 24 21 24 18 3 5 12 14 14 14 11 5 2 5 5 2 3 7 6 6 12 16 16 9 10 26 33 25 28 33 19 8 9 8 10 12 8 4 5 6 6 9 10 10 11 11 9 9 9 6 8 7 9 8 7 6 6 3 2 2 4 5 2 3 5 5 5 8 7 11 15 14 14 20 26 28 31 34 35 37 39
30 32 32 31 35 36 31 25 22 22 18 10 11 13 13 13 10 6 1 2 5 4 4 2 4 2 3 13 23 17 4 3 9 24 31 28 30 24 11 7 7 8 7 5 3 3 6 10 9 10 10 9 9 9 8 11 8 8 5 9 8 7 7 7 5 5 4 4 5 2 4 4 5 6 8 8 11 13 13 14 16 22 29 33 36 37 39 41
30 32 32 31 32 31 28 24 20 19 20 20 17 12 12 11 7 2 1 2 4 2 3 1 3 4 4 14 27 16 1 2 4 13 31 30 27 22 12 10 10 9 10 9 7 4 8 12 13 13 10 7 8 8 9 13 10 5 7 8 7 7 6 5 5 5 3 1 7 5 5 4 7 5 4 8 10 11 15 18 15 20 30 34 36 39 40 43
31 31 32 32 31 27 23 20 20 20 21 22 16 11 11 10 4 1 2 3 4 1 2 3 4 3 6 13 20 14 5 2 3 5 23 29 27 18 8 11 12 7 10 12 10 5 6 15 18 13 9 8 8 7 10 13 10 4 6 4 2 2 2 3 4 4 1 2 9 8 5 5 7 4 2 6 9 11 14 16 15 20 30 35 37 39 40 42
32 31 33 34 31 25 19 15 17 21 22 22 16 10 9 5 1 3 2 4 2 2 3 3 3 3 4 7 7 11 7 4 5 6 19 21 22 14 5 11 11 5 6 8 9 6 2 10 16 10 9 12 9 7 10 13 10 5 4 3 1 2 2 2 1 2 1 7 9 9 7 6 6 4 6 6 8 13 13 12 13 18 26 32 34 38 40 42
33 32 32 33 29 20 17 15 16 20 22 20 15 8 4 1 2 3 5 3 3 3 5 4 3 5 1 2 3 5 5 5 2 7 11 10 12 9 5 9 7 4 4 5 7 8 4 3 7 7 13 13 7 6 8 9 10 5 4 4 0 4 3 2 1 2 6 9 5 7 8 8 8 6 6 8 10 15 15 14 15 17 24 33 36 39 43 45
32 32 32 31 22 13 16 20 18 19 21 18 13 7 1 0 1 4 5 4 3 2 4 2 3 5 3 3 3 5 3 3 3 6 6 5 8 9 6 8 7 5 6 7 5 6 6 5 3 5 13 14 8 5 5 4 7 7 4 6 4 3 1 3 3 2 7 8 3 5 6 6 9 6 7 11 11 14 15 17 20 21 27 36 39 41 44 45
32 33 32 26 15 10 16 21 18 19 20 15 10 4 3 2 4 6 5 3 1 2 3 2 5 6 4 3 3 4 3 3 4 6 6 5 6 8 6 5 9 7 4 6 5 3 4 5 5 4 6 12 12 7 5 4 6 8 6 6 7 4 4 6 5 3 5 5 3 3 4 3 6 4 9 13 12 15 20 24 29 31 35 41 44 46 46 45
32 33 31 19 12 14 18 20 19 19 19 13 6 2 3 5 4 2 3 2 2 3 4 4 7 6 3 2 3 3 0 1 1 3 6 5 5 7 5 3 7 6 4 4 5 6 7 6 8 10 6 10 14 10 8 6 5 8 6 6 6 5 6 6 4 4 5 4 3 1 3 4 3 4 9 13 15 20 25 31 34 35 39 42 43 43 42 42
32 32 27 13 12 19 19 20 21 19 18 11 2 1 5 6 3 1 2 3 3 4 7 8 5 3 3 2 3 5 2 2 5 2 4 6 5 6 6 5 6 5 5 5 3 4 10 8 6 9 8 12 13 10 8 9 4 5 5 5 6 6 5 2 4 6 3 1 3 2 3 5 4 5 6 7 11 16 21 27 29 30 35 37 34 33 35 40
31 32 24 11 15 22 19 20 20 19 16 7 1 3 5 3 1 0 2 3 2 5 9 8 3 1 4 3 3 7 5 3 5 4 1 4 4 1 2 2 2 2 2 4 4 3 6 7 2 3 5 11 15 11 10 9 5 3 5 7 6 5 6 3 4 2 1 2 4 2 4 5 4 6 6 6 8 9 13 17 19 26 33 33 29 30 34 40
32 34 25 13 19 25 20 18 17 17 12 1 3 4 3 1 1 0 4 5 4 5 5 4 3 1 2 2 3 7 7 4 5 4 1 1 3 6 5 4 5 4 4 2 4 2 3 5 3 6 7 11 14 14 10 11 10 6 6 8 3 5 4 4 2 2 2 5 5 2 5 5 3 6 5 6 8 10 11 12 14 21 26 27 28 31 35 39
34 33 21 15 22 26 21 16 14 12 5 2 4 5 2 2 4 4 6 8 6 4 1 1 2 1 3 2 2 6 6 4 5 4 1 0 2 5 6 4 5 7 8 4 2 2 2 4 5 7 12 7 7 10 6 7 9 6 5 7 5 3 4 4 3 4 5 4 4 4 5 5 7 6 3 6 10 11 11 11 13 15 18 22 28 32 35 37
33 27 16 17 22 24 22 16 11 6 2 2 4 4 2 3 7 11 13 11 6 3 1 3 3 2 2 2 2 5 4 3 4 3 2 3 1 3 9 6 6 11 13 5 3 3 2 3 5 6 8 6 5 6 6 6 7 2 3 5 4 3 5 5 4 4 4 4 3 3 5 5 7 7 6 9 11 11 11 10 11 13 18 25 31 34 35 36
30 18 12 20 22 21 18 11 4 1 3 1 2 2 5 5 8 15 19 13 5 3 2 2 2 3 3 3 3 2 3 2 3 2 1 4 1 3 9 8 6 12 15 6 1 2 2 3 5 4 1 5 3 5 9 10 8 5 4 5 4 2 2 3 2 3 4 4 4 2 5 5 4 5 10 11 12 12 12 12 11 13 21 30 36 38 38 38
25 9 10 21 21 18 14 10 6 4 0 2 3 4 8 8 8 13 17 14 5 5 5 4 4 3 2 3 2 1 2 1 3 2 2 4 3 2 8 10 8 11 10 5 4 4 2 1 3 2 1 3 4 8 13 15 13 10 8 8 8 5 4 4 4 3 3 4 5 4 6 7 4 5 8 10 10 11 12 12 11 14 22 28 34 39 40 40
17 6 13 22 19 18 14 7 5 6 1 4 7 6 10 11 9 9 11 12 8 4 5 3 3 2 1 1 1 1 2 1 2 3 3 4 4 2 9 16 14 10 6 3 2 3 1 0 2 3 3 4 6 7 10 13 14 13 10 9 9 6 5 6 6 4 4 3 2 3 5 9 5 7 9 9 10 11 13 13 11 15 24 27 30 35 37 37
12 13 18 21 18 17 12 4 5 6 2 7 10 8 10 10 9 10 9 9 8 4 3 3 1 2 2 2 2 2 3 2 3 4 5 4 3 4 14 21 18 10 5 3 3 5 4 1 2 3 3 3 5 6 6 4 5 8 9 7 8 8 8 8 6 5 4 4 2 2 7 8 5 5 8 8 9 10 13 15 14 16 23 27 29 32 33 35
17 20 17 18 17 15 10 4 5 5 5 10 10 8 9 9 10 12 9 7 7 5 3 3 2 2 2 3 3 3 4 3 3 4 5 1 1 8 18 23 16 7 5 5 5 5 4 1 1 0 2 3 4 5 6 3 1 3 5 7 9 10 11 7 3 4 4 7 8 6 8 7 5 4 5 6 7 7 9 14 16 17 20 24 25 27 31 34
16 13 12 18 18 14 11 7 6 5 7 10 10 8 8 8 9 15 14 8 9 9 5 4 5 5 5 4 3 4 5 4 2 2 4 2 1 7 17 21 14 6 6 11 12 6 1 1 1 2 5 6 4 5 5 3 3 3 3 6 11 13 13 10 5 4 6 7 9 7 7 6 6 5 5 7 6 7 10 12 13 17 21 22 20 22 26 30
11 4 6 17 17 11 10 10 10 8 6 8 7 6 7 7 6 13 14 9 11 14 9 5 8 7 7 6 4 4 6 5 3 2 3 4 2 4 13 17 11 9 10 14 16 8 1 1 1 2 2 2 1 5 4 3 4 5 8 9 9 12 15 12 8 8 7 5 7 8 7 5 7 5 6 8 7 8 11 9 9 16 21 22 22 22 24 27
5 2 4 9 9 7 9 11 12 8 7 8 4 3 7 9 7 8 8 6 12 16 8 5 10 9 7 8 4 2 4 4 2 2 3 3 3 4 11 11 7 11 12 12 13 6 3 2 2 3 2 1 3 10 10 6 5 6 9 11 10 10 14 16 14 9 8 7 11 10 8 8 8 7 8 9 9 8 9 8 11 16 20 22 22 20 20 23
2 4 7 6 3 3 6 9 11 10 10 9 3 3 7 8 8 8 5 5 10 12 6 4 9 10 7 8 4 1 3 3 2 2 3 3 4 5 8 6 4 12 13 9 9 4 3 2 2 4 5 6 5 10 12 8 6 7 9 12 13 12 14 18 17 10 10 10 14 10 10 10 8 7 9 10 10 9 11 14 15 15 16 18 19 20 22 24
3 5 7 5 3 5 8 12 12 9 9 8 4 3 5 7 8 8 5 4 6 6 5 3 7 10 8 5 3 2 1 2 2 2 2 3 4 3 4 3 3 11 12 6 6 3 2 1 2 3 6 8 7 8 9 7 7 8 11 11 13 14 15 17 15 12 12 13 12 8 10 11 8 8 10 11 12 10 9 11 12 12 14 16 19 22 24 26
5 5 7 7 6 9 11 10 8 6 7 7 4 2 4 7 10 9 6 6 6 3 5 5 8 10 8 5 3 3 2 2 2 2 2 3 3 1 1 1 2 7 8 4 4 4 1 1 2 3 4 7 8 6 6 9 10 11 13 12 11 13 13 14 13 10 10 10 10 9 9 8 8 7 7 10 9 5 4 7 11 15 16 16 17 19 20 21
9 9 10 8 5 6 7 5 4 4 4 3 2 4 6 8 11 12 9 7 5 1 5 8 10 8 6 6 4 4 4 5 4 6 6 5 5 4 3 2 2 5 4 2 3 3 1 1 2 4 3 5 6 6 10 14 13 12 12 11 10 10 10 10 9 9 10 10 10 12 11 8 7 6 7 11 10 6 6 9 12 15 15 14 17 19 19 19
11 11 10 7 4 3 4 3 3 3 2 2 4 7 8 9 11 12 8 4 3 5 7 9 11 7 4 5 4 5 9 11 13 15 15 13 12 11 11 10 8 4 2 1 2 2 2 1 1 2 1 4 7 7 10 12 10 8 7 5 7 9 10 10 9 9 11 11 10 13 12 8 8 7 7 9 11 10 10 9 9 11 12 14 17 19 20 21
Wind_Direction
336 334 330 326 323 319 316 314 309 306 305 303 302 301 300 300 300 299 298 297 295 294 292 293 294 294 295 294 292 293 292 287 286 279 270 274 284 270 258 253 250 246 236 222 222 202 176 177 181 178 174 171 177 186 189 195 196 190 187 225 228 247 235 217 206 192 36 126 158 171 159 143 153 167 163 161 159 153 160 169 178 186 274 198 185 172 165 165
338 336 332 329 328 324 322 317 313 311 307 304 303 299 298 297 296 296 296 296 295 293 291 291 291 292 293 293 295 298 296 294 291 278 275 288 285 269 254 246 244 238 230 215 215 203 184 178 177 173 170 172 179 185 192 197 194 192 171 201 223 227 224 238 221 235 334 209 170 179 169 156 164 165 163 163 144 153 159 161 167 162 141 165 172 168 167 168
340 337 334 331 329 326 324 320 317 314 310 308 304 301 299 295 294 292 292 292 292 292 290 290 290 292 291 292 297 299 303 305 296 285 282 279 259 253 239 231 228 226 222 211 211 207 195 183 176 169 165 175 182 181 191 196 195 203 202 230 243 238 251 275 267 293 313 214 170 176 172 161 165 164 164 162 148 165 174 164 161 157 152 158 165 167 168 170
339 338 335 332 330 327 324 321 319 316 313 310 306 304 300 296 294 290 290 289 288 289 287 288 289 290 291 292 296 300 312 313 296 283 265 239 250 248 232 220 211 212 209 205 206 202 196 184 176 170 164 176 189 188 194 196 187 186 202 219 241 244 261 271 270 302 296 200 177 167 161 159 167 170 167 152 142 188 203 187 180 176 168 164 166 168 171 172
339 337 335 333 331 329 326 324 321 318 315 311 307 304 301 298 295 291 289 286 285 285 284 286 287 289 290 290 294 297 316 330 290 213 202 250 278 266 235 216 205 201 194 191 186 187 190 179 172 171 173 181 188 198 212 207 198 189 219 229 245 264 281 276 270 14 301 185 168 158 163 171 167 176 176 163 161 203 207 199 190 184 179 173 172 172 173 175
339 337 336 334 333 331 329 327 324 321 318 313 309 304 301 298 295 293 288 284 283 282 281 282 284 285 285 288 292 288 279 280 226 171 252 284 278 291 234 209 199 192 190 191 179 178 182 173 168 172 181 191 195 204 214 208 209 233 243 233 247 248 254 274 272 245 319 152 162 171 182 171 162 187 190 183 187 203 209 201 191 186 184 178 174 173 175 178
341 339 338 336 333 331 330 328 325 323 320 316 312 306 303 299 297 294 288 284 279 278 279 278 282 280 282 285 284 277 242 250 246 228 284 274 256 304 210 195 188 184 186 188 180 176 178 173 173 178 179 196 211 215 224 213 211 229 259 244 253 252 249 270 276 268 267 209 193 180 172 171 176 192 192 199 204 224 222 197 190 185 180 177 175 176 179 181
342 341 339 337 334 332 330 328 326 324 321 317 314 309 305 301 297 294 290 285 277 275 275 274 279 276 279 279 276 273 248 254 268 290 272 240 228 253 185 179 177 181 183 186 186 180 178 175 180 183 182 207 194 200 216 226 226 227 252 261 267 267 264 272 279 276 239 209 215 183 169 190 194 189 189 206 209 231 214 187 186 181 175 176 177 179 181 183
344 341 340 338 335 333 330 329 327 324 321 316 313 309 306 302 298 295 289 284 278 273 270 270 274 273 276 273 270 267 257 265 275 275 261 215 206 206 186 177 175 182 185 191 195 188 180 179 187 185 177 220 214 215 193 198 241 229 244 261 269 266 270 275 276 278 258 204 209 190 186 204 200 193 205 209 205 212 192 179 180 178 175 176 179 181 183 185
345 343 341 339 337 335 331 330 327 324 320 314 312 310 307 304 300 294 287 283 278 272 268 265 267 268 272 263 244 242 263 278 257 240 228 194 191 184 187 184 181 187 189 193 195 194 188 188 194 190 191 230 222 241 209 201 241 244 252 258 263 263 270 274 271 276 273 205 200 196 203 211 199 198 223 203 197 192 176 172 176 177 177 178 180 183 184 186
347 345 343 340 339 336 334 333 330 326 320 315 313 311 309 305 299 293 286 282 277 273 266 262 262 262 265 254 229 234 255 249 195 180 158 173 181 185 192 189 189 193 193 193 195 199 201 203 196 189 208 240 212 238 235 235 250 268 283 280 272 271 272 271 268 271 274 206 201 199 208 211 193 209 219 185 185 186 173 169 175 177 179 180 181 183 185 188
348 346 344 342 340 338 336 335 333 329 322 317 316 315 312 304 297 292 287 284 278 272 264 258 256 256 260 252 242 242 247 232 222 228 206 173 170 185 199 199 201 202 199 195 195 202 208 211 197 185 196 220 191 253 260 241 244 262 276 283 281 288 281 265 255 258 259 201 197 188 211 222 193 219 210 177 177 178 173 170 174 178 179 182 183 184 187 189
349 346 344 341 339 338 336 335 334 330 324 320 321 318 312 305 301 296 290 287 279 270 262 255 252 251 248 248 251 249 244 237 234 236 235 213 184 182 200 206 210 213 214 209 204 206 210 212 203 197 199 188 157 180 286 279 247 264 261 246 284 321 297 262 239 240 237 206 183 169 223 241 213 220 188 172 174 168 168 171 174 179 181 183 185 187 189 191
348 346 343 340 339 337 335 335 334 330 325 325 325 321 314 309 306 300 296 293 281 266 256 248 246 244 236 245 258 262 251 243 241 235 232 231 222 215 208 203 209 215 218 221 219 215 214 211 206 207 212 216 232 271 304 326 356 305 298 249 278 289 279 281 220 176 197 227 174 162 248 243 221 214 178 173 174 168 167 172 177 181 184 185 186 190 192 193
347 345 342 340 338 337 336 335 334 330 327 328 329 323 318 316 312 308 304 297 284 262 247 240 236 227 238 258 265 267 259 244 240 235 229 232 231 229 217 200 204 210 215 221 221 220 218 212 205 209 223 229 245 279 313 323 325 26 290 289 302 213 266 295 298 160 190 234 173 168 258 257 228 193 177 175 175 172 170 174 180 183 186 188 188 191 194 195
346 344 342 340 338 337 337 337 336 331 329 332 332 326 323 322 319 317 314 310 306 262 231 227 226 216 240 277 272 262 256 245 233 224 220 225 226 225 219 204 200 202 210 218 218 216 215 211 207 214 227 228 221 211 281 298 293 341 170 253 271 234 280 306 303 214 207 214 174 189 233 273 255 179 173 176 176 174 172 177 182 185 188 190 190 192 194 196
344 343 341 339 338 338 338 339 338 334 333 336 335 329 325 322 316 309 313 345 359 343 199 203 202 219 246 259 267 260 251 242 225 211 212 216 221 225 224 210 199 199 205 211 214 205 191 194 197 212 219 208 154 152 198 241 242 267 169 224 257 241 263 280 306 302 208 187 204 219 229 240 258 164 168 176 179 176 176 181 184 187 190 192 193 193 194 197
344 342 341 339 339 338 340 342 339 338 338 339 341 336 323 312 301 288 285 323 346 35 178 182 157 200 258 244 245 247 240 220 209 208 207 206 213 223 223 213 204 198 191 190 205 196 188 190 176 178 202 190 178 171 200 219 198 207 203 222 268 249 249 251 269 315 55 228 231 224 237 241 238 161 171 178 181 181 183 185 186 189 191 193 195 194 196 199
343 342 341 339 338 339 342 343 341 342 342 342 349 341 323 316 301 279 273 299 307 258 244 194 173 202 271 250 247 241 237 224 212 210 203 200 203 207 212 214 207 191 170 156 195 185 179 184 176 193 208 197 198 195 205 181 139 177 183 188 231 237 252 254 255 276 309 270 246 226 234 238 211 181 181 182 184 186 189 187 187 190 192 194 197 198 198 201
343 342 340 338 338 338 342 346 344 347 349 350 354 352 353 353 330 291 303 297 276 259 268 251 226 245 261 264 269 263 253 243 233 218 204 203 197 190 195 198 195 185 164 145 182 177 171 186 214 208 210 198 200 204 207 198 170 193 191 199 229 237 260 266 274 285 281 242 252 237 236 245 221 194 188 183 183 188 190 186 188 191 193 196 199 201 201 206
342 341 338 337 337 337 341 346 345 352 357 353 1 25 34 19 6 321 319 305 286 273 271 266 255 255 259 258 261 268 279 275 246 219 203 206 194 181 184 181 169 189 186 151 146 161 172 203 223 206 200 188 190 191 193 205 203 211 223 233 254 247 258 271 273 278 272 210 270 265 254 258 239 205 190 181 180 191 190 187 191 193 195 198 201 203 205 208
341 339 338 335 335 335 339 344 347 356 356 350 11 40 36 15 0 327 316 300 294 292 279 272 264 257 258 255 254 259 267 273 250 226 201 191 192 182 175 176 174 185 180 154 141 153 193 224 214 192 187 177 185 184 180 195 194 200 212 210 248 243 262 279 268 268 232 197 270 275 256 263 250 195 186 188 189 195 193 191 193 194 194 197 201 205 206 207
341 339 337 334 333 333 336 343 348 352 351 350 27 25 12 355 350 333 313 276 289 293 280 269 259 254 254 250 248 245 239 237 242 233 208 185 191 188 171 172 186 175 165 183 187 182 209 234 193 176 179 179 192 185 173 188 194 194 185 190 237 223 169 268 276 297 254 205 251 267 258 278 277 164 188 204 203 202 200 199 199 196 195 198 203 204 204 203
343 341 338 334 332 330 334 342 344 340 346 350 16 5 353 341 341 335 320 268 277 288 278 269 257 252 249 247 243 227 221 219 223 228 210 189 185 181 178 177 171 175 189 196 198 199 224 244 175 164 176 188 201 196 172 183 216 216 193 205 236 210 195 240 282 322 307 282 251 250 314 310 225 182 203 207 206 211 208 206 209 205 202 204 206 206 205 205
345 343 340 336 334 331 333 341 341 339 344 345 300 333 333 330 333 336 327 278 276 279 276 266 245 248 243 233 227 212 211 220 223 223 211 195 187 167 171 180 166 193 202 188 193 213 233 229 159 160 176 188 199 207 190 183 215 240 214 213 222 197 207 245 306 344 335 314 271 203 276 297 253 207 213 195 196 210 207 205 212 210 207 208 209 209 209 209
346 344 341 338 338 335 334 345 344 337 343 336 283 313 315 321 331 331 325 309 291 257 226 223 215 234 210 189 188 179 181 238 233 224 212 202 196 176 152 171 176 204 193 169 187 222 216 177 154 169 180 183 199 216 200 175 204 247 212 192 200 191 212 237 243 289 278 265 268 176 192 272 304 245 223 194 196 207 204 207 212 209 208 208 210 210 209 210
349 346 342 338 342 341 340 349 345 335 338 321 303 312 310 316 329 324 327 356 289 216 142 170 190 145 159 177 168 152 145 245 222 216 207 200 195 187 178 172 181 195 159 134 216 212 160 163 171 182 175 181 203 216 191 167 198 240 165 143 166 178 202 213 194 212 229 254 278 235 172 248 286 251 223 195 201 213 210 216 215 209 210 211 211 212 211 211
351 348 344 338 343 345 341 346 348 338 330 320 315 314 311 314 313 286 90 332 279 167 117 144 110 104 138 167 170 169 282 134 120 214 203 192 188 187 191 187 178 179 158 161 207 193 149 172 188 185 181 196 206 203 176 171 204 220 129 135 157 164 188 181 169 216 233 296 277 249 165 219 270 264 225 182 197 219 218 220 218 210 213 212 212 213 213 213
351 350 346 340 342 344 339 345 353 340 320 317 320 312 310 309 288 125 100 270 264 57 55 123 93 75 124 152 188 215 300 23 30 207 187 185 190 190 201 193 173 163 179 190 206 193 165 192 193 182 190 212 205 189 170 180 208 193 139 160 159 151 182 141 162 209 199 225 253 248 174 206 268 272 197 174 195 217 222 223 222 216 216 215 213 214 214 215
349 349 345 343 345 344 337 338 345 338 320 315 321 315 311 298 196 106 182 241 271 351 13 93 73 354 117 131 221 252 270 303 354 139 170 182 191 192 184 176 164 137 187 214 216 216 240 199 191 181 200 209 198 185 182 188 194 157 146 198 297 319 352 47 131 117 267 254 246 232 184 189 262 246 177 185 197 204 214 222 223 224 223 221 218 215 215 215
346 345 345 346 347 344 343 336 331 332 322 314 318 317 309 301 109 154 211 258 336 336 8 32 21 8 68 169 260 254 249 277 353 134 169 179 182 187 151 157 165 135 174 225 223 228 270 194 183 197 205 197 173 190 203 190 183 168 147 146 186 316 336 323 355 95 236 251 234 206 177 177 240 238 185 206 206 198 204 211 214 218 222 223 220 217 216 216
345 342 344 346 344 348 354 343 329 326 323 319 316 309 276 137 225 211 238 326 349 335 11 342 327 359 316 273 248 218 218 236 192 152 179 187 178 188 176 170 173 160 195 215 199 210 231 225 221 216 205 189 161 188 212 173 172 180 152 135 166 263 282 235 229 191 236 251 233 186 163 188 239 237 198 213 215 204 205 209 210 212 217 221 220 217 217 215
345 342 344 347 354 9 358 346 337 332 332 328 314 320 89 165 230 221 246 306 8 346 348 298 308 316 273 284 295 242 215 220 203 173 180 183 180 195 199 185 173 163 184 190 166 170 227 253 235 212 208 187 171 174 194 184 176 178 166 153 171 189 202 217 227 244 250 259 259 173 150 234 269 256 206 205 211 212 210 212 214 215 217 220 220 217 216 214
344 342 345 357 17 9 353 347 345 341 339 334 317 4 128 210 245 247 258 290 7 355 341 319 310 306 264 245 343 351 358 283 294 168 174 159 169 199 207 210 191 164 111 154 173 179 197 237 218 205 200 172 180 194 180 154 162 182 157 137 172 183 184 197 201 216 235 259 275 177 161 213 234 245 220 202 205 208 210 215 218 220 222 224 223 219 214 213
340 340 348 9 14 360 350 342 341 340 336 332 331 171 197 218 264 5 316 317 354 353 333 318 304 314 323 299 357 14 31 346 358 1 181 160 162 194 196 209 212 173 135 176 199 175 201 234 228 206 189 163 181 198 159 131 158 190 126 129 206 188 153 190 197 182 184 297 268 220 215 222 215 259 256 222 216 208 208 216 218 223 227 227 227 220 213 214
337 339 349 8 1 357 351 337 334 332 329 336 129 220 231 235 250 123 355 351 352 337 326 321 333 34 336 325 352 357 360 355 359 6 159 150 111 59 237 249 235 174 142 200 210 158 191 234 237 146 177 187 185 176 163 164 172 166 155 186 204 142 136 220 246 182 111 268 259 221 251 287 301 280 259 219 226 219 209 214 216 222 227 227 226 220 215 215
339 339 346 2 354 351 347 335 329 322 320 340 183 246 254 295 292 114 7 357 329 318 335 341 347 23 346 343 349 345 345 339 354 14 328 180 57 11 329 332 10 22 12 325 238 188 171 241 244 145 192 222 188 166 176 178 151 133 190 194 121 84 139 186 245 273 232 250 277 245 240 268 265 268 261 187 206 227 217 210 214 222 226 228 227 222 219 217
340 337 344 1 350 343 340 332 317 305 304 157 230 271 274 303 335 360 354 348 322 294 18 304 281 38 33 348 328 343 349 348 349 358 354 359 37 10 352 328 349 359 345 326 258 250 204 253 271 191 193 212 162 159 189 195 174 166 181 170 131 137 188 168 195 226 215 236 277 278 261 240 215 233 243 189 205 222 223 214 211 217 222 226 228 226 223 219
341 338 346 1 348 338 336 325 296 263 178 145 243 263 285 299 328 332 330 336 323 284 277 231 248 17 7 337 344 343 355 11 339 331 34 31 22 31 19 344 311 331 327 313 199 250 232 197 271 250 192 157 130 165 190 208 224 221 132 159 160 170 182 173 181 181 185 222 246 299 294 246 217 200 178 201 215 215 220 220 214 214 214 217 224 226 224 219
344 339 345 358 349 339 346 352 334 190 149 201 239 273 329 318 313 317 325 336 315 265 305 282 301 334 311 335 3 349 359 6 329 320 45 22 57 74 22 1 325 325 325 326 142 312 320 191 243 295 166 148 159 195 189 191 211 208 183 193 191 174 162 171 203 171 163 196 196 239 269 253 226 188 178 198 215 213 214 215 216 219 215 214 218 223 223 219
348 335 334 355 353 348 10 53 45 10 358 328 331 329 329 316 308 318 330 345 333 248 258 270 290 296 287 338 354 360 355 300 299 347 55 24 32 51 4 356 334 319 326 353 29 19 16 225 235 251 189 185 209 211 197 193 195 192 198 203 194 182 136 150 240 242 170 192 181 185 253 264 248 192 185 195 208 214 214 211 217 224 220 217 218 222 223 221
351 317 334 359 1 359 18 62 27 5 30 353 342 327 322 312 313 327 331 346 352 285 264 275 289 311 338 324 296 354 358 314 322 8 75 54 51 48 356 353 344 331 339 14 4 359 9 261 240 232 224 222 233 229 214 211 205 196 201 201 188 178 149 170 223 226 190 219 151 131 257 269 248 193 189 197 205 213 215 210 214 229 228 224 222 224 225 224
341 311 339 11 15 8 22 60 13 11 2 345 339 329 332 326 333 347 341 343 349 333 324 341 352 24 14 351 10 6 357 21 24 44 76 68 62 40 4 356 351 347 360 27 345 332 333 247 222 282 306 291 275 289 299 273 211 205 216 201 183 187 186 198 208 175 185 218 160 178 251 265 271 215 202 212 215 216 221 216 215 228 233 231 227 226 227 228
327 312 336 17 29 32 39 40 10 1 336 344 341 332 347 351 349 346 337 340 352 346 330 328 349 37 3 341 25 27 10 35 60 57 64 73 78 34 8 354 353 0 11 16 356 331 327 314 132 46 254 245 265 280 290 304 228 224 232 206 198 195 189 201 188 132 209 210 176 198 239 244 282 277 238 248 249 244 242 229 221 228 236 238 234 227 227 231
334 318 331 358 14 44 52 40 27 359 337 343 334 325 345 351 350 341 331 342 7 357 332 324 350 27 26 3 32 40 26 43 60 40 50 33 57 41 3 343 344 355 351 4 2 344 282 263 82 129 207 214 215 222 226 276 299 295 283 231 211 197 189 195 187 184 225 209 178 201 237 252 290 289 250 256 259 259 257 245 236 237 243 248 245 235 232 234
342 322 324 342 355 29 42 33 27 5 341 343 330 321 340 335 341 346 339 351 8 356 348 357 6 19 29 21 33 41 21 18 12 15 38 15 16 30 347 332 337 348 353 8 2 349 120 21 36 118 186 207 267 263 250 306 302 295 309 288 242 209 198 198 208 209 198 181 202 219 210 230 269 255 232 243 240 243 253 256 251 246 246 250 247 241 238 236
352 315 331 338 339 359 7 8 13 360 330 334 322 288 330 333 338 355 354 358 358 352 351 39 35 29 21 12 19 56 12 350 353 34 44 11 350 348 335 323 337 358 7 15 357 352 93 357 337 72 30 325 302 289 281 288 271 259 284 285 269 239 208 205 218 207 148 169 231 229 190 205 245 236 224 231 224 230 246 250 249 246 245 249 251 250 245 241
341 301 321 328 319 350 349 338 343 336 319 323 313 277 323 339 343 351 356 344 350 357 359 27 31 28 17 4 355 11 13 355 360 37 41 10 351 349 342 326 355 9 12 13 354 13 121 262 303 39 345 303 283 283 280 281 262 250 262 265 268 262 230 219 222 196 160 202 237 229 191 199 231 233 228 228 214 213 228 233 238 245 248 252 257 259 257 255
304 290 304 316 305 295 296 302 312 318 315 318 316 304 325 337 338 341 349 331 332 7 30 4 355 358 357 358 347 326 13 32 2 1 10 356 352 353 340 316 346 9 12 5 343 359 132 265 320 15 334 310 295 280 278 289 287 278 274 264 263 262 249 240 234 211 200 222 241 232 196 197 219 221 222 229 219 212 226 228 225 235 245 247 250 254 259 262
307 294 299 307 294 283 283 288 299 307 313 319 321 329 331 331 331 334 335 314 292 332 26 359 339 341 336 335 330 293 298 14 358 309 321 349 347 330 302 277 324 358 2 349 325 339 351 309 335 16 349 310 299 297 299 303 301 289 278 267 262 265 264 258 246 227 219 225 238 239 213 209 237 239 236 251 248 234 245 231 219 226 236 243 248 253 260 267
315 308 306 302 289 289 289 287 298 298 301 319 327 337 339 328 327 330 320 289 258 295 9 342 330 330 317 315 319 287 308 342 312 281 284 281 263 255 266 291 337 352 350 318 314 338 332 284 349 31 8 295 296 321 320 316 310 289 273 269 266 260 257 257 242 221 214 212 223 237 231 227 244 248 255 270 275 264 244 239 237 241 247 254 257 258 262 270
325 317 313 306 289 296 295 283 290 290 293 333 328 326 325 313 315 323 317 291 301 331 342 330 320 321 308 301 324 333 325 317 301 293 289 272 259 258 257 259 265 260 242 307 320 290 238 246 323 29 16 289 292 311 321 322 313 282 264 271 270 252 240 242 243 230 216 202 208 228 230 218 208 205 221 250 261 257 250 250 256 259 260 260 260 261 264 269
Height
1515 1514 1513 1512 1510 1509 1508 1507 1506 1504 1503 1502 1501 1500 1499 1498 1497 1497 1496 1495 1494 1493 1493 1492 1492 1491 1490 1490 1489 1489 1488 1487 1486 1485 1481 1477 1478 1481 1482 1483 1484 1485 1486 1488 1489 1491 1492 1494 1497 1499 1501 1503 1505 1506 1508 1509 1509 1512 1513 1518 1520 1517 1512 1503 1499 1497 1495 1495 1493 1492 1490 1492 1498 1500 1500 1503 1505 1504 1506 1507 1507 1508 1508 1508 1509 1511 1513 1516
1514 1513 1512 1511 1509 1508 1507 1505 1504 1503 1502 1500 1499 1498 1497 1496 1496 1495 1494 1493 1493 1492 1491 1491 1490 1490 1489 1488 1487 1487 1485 1484 1483 1480 1477 1475 1476 1477 1478 1480 1481 1483 1483 1485 1486 1487 1488 1491 1494 1497 1500 1502 1504 1506 1508 1508 1508 1509 1511 1517 1515 1508 1501 1494 1493 1492 1492 1494 1491 1490 1490 1490 1494 1496 1499 1502 1505 1505 1506 1507 1508 1509 1508 1509 1510 1511 1514 1516
1514 1512 1511 1509 1508 1506 1505 1504 1503 1501 1500 1499 1497 1496 1495 1494 1494 1493 1492 1492 1491 1490 1489 1489 1489 1488 1487 1487 1486 1485 1484 1483 1479 1475 1473 1473 1473 1473 1474 1476 1477 1480 1481 1483 1484 1486 1487 1490 1493 1497 1500 1502 1504 1505 1506 1506 1506 1506 1509 1515 1508 1498 1495 1490 1490 1491 1491 1491 1490 1491 1491 1492 1493 1495 1498 1501 1504 1504 1504 1504 1504 1507 1507 1508 1510 1511 1513 1515
1513 1512 1510 1508 1507 1505 1504 1502 1501 1499 1498 1497 1496 1495 1493 1492 1492 1491 1490 1489 1489 1488 1487 1487 1487 1486 1486 1485 1485 1484 1483 1481 1475 1471 1471 1471 1472 1472 1472 1473 1475 1478 1480 1483 1484 1487 1489 1491 1494 1497 1500 1502 1503 1504 1505 1504 1504 1504 1506 1507 1499 1493 1495 1490 1490 1492 1490 1490 1489 1491 1492 1494 1495 1496 1497 1498 1505 1507 1501 1497 1496 1499 1503 1506 1509 1510 1512 1514
1512 1511 1509 1507 1506 1504 1503 1501 1500 1498 1497 1495 1494 1492 1491 1490 1489 1488 1488 1487 1487 1486 1485 1485 1485 1485 1484 1483 1484 1483 1484 1482 1472 1469 1471 1470 1470 1470 1470 1471 1473 1476 1479 1482 1484 1486 1489 1491 1494 1497 1500 1501 1502 1503 1502 1500 1502 1502 1498 1497 1493 1494 1495 1488 1490 1493 1490 1490 1490 1492 1493 1492 1494 1496 1496 1495 1499 1499 1493 1492 1493 1494 1498 1501 1504 1508 1511 1513
1512 1510 1508 1506 1505 1503 1501 1500 1498 1497 1495 1493 1492 1490 1489 1488 1487 1486 1485 1485 1484 1484 1483 1483 1483 1483 1482 1482 1482 1482 1484 1480 1470 1469 1470 1469 1469 1468 1468 1469 1471 1475 1478 1481 1483 1485 1488 1491 1493 1496 1498 1499 1500 1500 1499 1499 1501 1501 1496 1492 1492 1494 1492 1485 1489 1492 1490 1491 1491 1491 1491 1491 1492 1494 1494 1492 1490 1489 1488 1492 1495 1495 1496 1499 1502 1506 1509 1510
1511 1509 1508 1506 1504 1502 1500 1498 1496 1495 1493 1491 1490 1488 1487 1486 1485 1484 1483 1482 1482 1481 1481 1481 1481 1481 1480 1480 1479 1480 1480 1473 1467 1470 1470 1469 1469 1467 1467 1468 1471 1474 1477 1479 1481 1483 1486 1489 1491 1493 1496 1498 1499 1497 1498 1498 1498 1500 1495 1490 1490 1492 1489 1485 1487 1490 1491 1491 1489 1489 1491 1491 1492 1492 1492 1490 1488 1489 1491 1493 1497 1498 1498 1500 1502 1505 1507 1509
1510 1509 1507 1505 1503 1501 1499 1497 1495 1493 1491 1489 1487 1486 1484 1483 1482 1481 1480 1480 1479 1479 1478 1478 1479 1479 1479 1478 1478 1478 1475 1466 1465 1469 1468 1468 1468 1467 1467 1468 1471 1473 1476 1478 1479 1482 1485 1487 1490 1492 1495 1497 1496 1496 1497 1498 1498 1497 1493 1490 1490 1490 1487 1485 1485 1487 1489 1490 1489 1490 1490 1490 1489 1490 1489 1488 1489 1491 1491 1493 1496 1499 1500 1500 1501 1504 1507 1509
1510 1508 1506 1504 1502 1500 1498 1496 1494 1492 1489 1487 1485 1483 1482 1480 1479 1477 1477 1476 1476 1477 1476 1476 1476 1476 1477 1476 1477 1476 1467 1462 1465 1466 1465 1467 1468 1467 1467 1468 1471 1473 1475 1478 1479 1481 1483 1486 1488 1491 1494 1495 1495 1495 1495 1499 1498 1493 1491 1490 1489 1487 1485 1485 1484 1483 1486 1488 1488 1489 1489 1488 1488 1490 1489 1487 1490 1492 1491 1493 1495 1498 1499 1499 1501 1503 1505 1508
1509 1507 1505 1503 1501 1499 1496 1495 1492 1490 1488 1485 1483 1481 1479 1477 1476 1474 1473 1472 1473 1474 1474 1474 1474 1474 1475 1474 1476 1472 1463 1462 1464 1463 1464 1466 1467 1467 1468 1469 1470 1473 1475 1477 1479 1480 1481 1484 1487 1490 1493 1493 1494 1494 1494 1496 1495 1490 1489 1489 1487 1486 1484 1483 1482 1480 1483 1486 1485 1487 1487 1485 1486 1491 1489 1486 1489 1490 1491 1493 1495 1497 1499 1499 1500 1502 1505 1507
1508 1506 1504 1501 1499 1497 1495 1493 1491 1488 1486 1483 1481 1479 1476 1474 1472 1471 1470 1470 1470 1471 1471 1471 1471 1472 1472 1472 1472 1466 1461 1463 1463 1463 1464 1465 1466 1468 1468 1470 1470 1472 1474 1476 1478 1480 1482 1484 1486 1491 1493 1492 1492 1493 1492 1492 1492 1489 1489 1489 1485 1485 1483 1481 1480 1478 1480 1483 1481 1482 1483 1483 1487 1487 1483 1482 1486 1488 1490 1493 1495 1496 1498 1500 1501 1502 1505 1507
1507 1505 1502 1500 1498 1495 1493 1491 1489 1486 1483 1481 1479 1476 1474 1471 1469 1468 1467 1467 1467 1468 1468 1468 1470 1469 1470 1469 1463 1458 1459 1462 1462 1463 1464 1464 1466 1467 1468 1470 1471 1472 1473 1475 1477 1479 1482 1483 1485 1489 1489 1490 1491 1492 1491 1489 1490 1489 1490 1491 1486 1484 1482 1477 1477 1475 1477 1480 1478 1481 1488 1489 1487 1481 1478 1482 1485 1487 1489 1492 1495 1496 1498 1500 1501 1503 1504 1506
1506 1504 1501 1499 1496 1494 1491 1489 1487 1484 1481 1479 1476 1474 1471 1468 1467 1465 1464 1464 1464 1464 1465 1466 1466 1467 1469 1464 1453 1453 1459 1460 1460 1461 1462 1464 1465 1466 1468 1469 1471 1473 1474 1475 1477 1479 1481 1483 1484 1486 1486 1488 1489 1491 1489 1487 1489 1489 1489 1491 1490 1491 1485 1474 1473 1474 1475 1477 1474 1481 1495 1492 1482 1476 1478 1482 1484 1487 1490 1492 1495 1497 1498 1500 1501 1503 1503 1505
1505 1503 1500 1498 1495 1492 1490 1487 1485 1482 1479 1477 1474 1471 1468 1466 1465 1463 1462 1461 1461 1461 1462 1463 1464 1465 1465 1456 1449 1453 1456 1457 1458 1458 1460 1462 1463 1465 1466 1468 1470 1472 1474 1475 1477 1479 1480 1482 1484 1485 1486 1487 1487 1488 1488 1487 1489 1490 1490 1491 1493 1497 1488 1471 1471 1474 1476 1477 1471 1480 1493 1486 1477 1476 1478 1480 1482 1485 1488 1491 1493 1496 1498 1498 1499 1501 1502 1503
1504 1502 1499 1496 1494 1491 1488 1486 1483 1480 1478 1475 1472 1469 1466 1465 1463 1461 1460 1458 1458 1458 1459 1461 1461 1463 1461 1452 1448 1451 1451 1453 1453 1454 1458 1459 1461 1463 1464 1466 1468 1470 1473 1475 1476 1478 1480 1482 1484 1485 1486 1486 1488 1490 1491 1492 1490 1491 1497 1498 1495 1497 1488 1474 1471 1472 1475 1475 1470 1480 1490 1481 1474 1475 1475 1478 1481 1483 1486 1489 1491 1493 1496 1497 1497 1499 1501 1502
1503 1500 1498 1495 1492 1490 1487 1484 1481 1478 1476 1473 1470 1468 1465 1464 1462 1461 1459 1457 1457 1457 1457 1459 1458 1461 1459 1450 1447 1447 1447 1448 1450 1452 1455 1456 1458 1461 1463 1465 1466 1469 1471 1473 1475 1477 1479 1481 1483 1484 1485 1486 1488 1492 1496 1498 1495 1492 1498 1501 1497 1495 1492 1482 1473 1468 1470 1473 1473 1477 1484 1479 1473 1472 1473 1477 1480 1482 1485 1487 1489 1491 1494 1496 1496 1497 1499 1501
1501 1498 1495 1493 1490 1488 1486 1483 1480 1477 1474 1471 1469 1466 1465 1463 1462 1460 1458 1457 1457 1456 1457 1457 1458 1460 1455 1446 1445 1445 1445 1446 1447 1449 1451 1453 1456 1458 1461 1463 1465 1467 1469 1472 1475 1476 1479 1480 1482 1484 1484 1486 1487 1491 1500 1504 1501 1496 1497 1498 1496 1494 1493 1488 1478 1470 1469 1473 1476 1476 1478 1477 1472 1470 1473 1476 1478 1481 1483 1485 1487 1489 1492 1494 1495 1496 1497 1499
1499 1496 1494 1491 1488 1486 1484 1481 1478 1475 1472 1470 1467 1465 1464 1462 1461 1460 1458 1457 1457 1457 1457 1456 1458 1460 1449 1441 1443 1443 1443 1445 1445 1447 1448 1450 1453 1455 1459 1461 1463 1465 1467 1471 1473 1475 1478 1478 1480 1483 1483 1485 1486 1488 1496 1497 1494 1497 1498 1498 1497 1493 1491 1489 1482 1474 1471 1475 1478 1478 1479 1476 1473 1472 1472 1473 1476 1479 1480 1482 1484 1487 1490 1493 1494 1494 1495 1497
1498 1495 1492 1489 1487 1484 1482 1480 1477 1474 1471 1469 1467 1465 1463 1461 1460 1459 1457 1457 1457 1456 1454 1453 1453 1451 1443 1438 1441 1442 1443 1444 1444 1445 1446 1448 1450 1453 1456 1460 1461 1462 1466 1470 1472 1472 1475 1478 1481 1483 1482 1482 1481 1482 1486 1485 1486 1490 1492 1494 1494 1492 1489 1484 1480 1474 1472 1477 1478 1478 1479 1475 1473 1473 1471 1472 1474 1477 1479 1481 1484 1487 1489 1491 1492 1492 1493 1493
1497 1494 1491 1488 1486 1483 1481 1479 1476 1473 1471 1468 1466 1464 1463 1462 1460 1458 1456 1454 1453 1451 1448 1448 1447 1442 1437 1437 1439 1441 1442 1443 1443 1444 1445 1446 1448 1450 1453 1457 1460 1462 1463 1467 1471 1470 1472 1479 1478 1476 1476 1476 1477 1479 1481 1481 1482 1485 1488 1490 1490 1491 1488 1480 1477 1473 1471 1478 1478 1473 1475 1473 1471 1471 1468 1469 1473 1475 1478 1480 1483 1485 1487 1488 1490 1490 1490 1489
1497 1494 1490 1487 1485 1482 1480 1478 1475 1474 1471 1469 1467 1465 1467 1469 1468 1466 1458 1448 1444 1446 1443 1441 1443 1438 1434 1436 1437 1439 1441 1441 1440 1441 1443 1444 1445 1448 1450 1453 1458 1461 1461 1462 1467 1468 1471 1475 1471 1469 1471 1473 1475 1476 1479 1480 1481 1484 1486 1489 1490 1490 1486 1479 1477 1473 1471 1479 1478 1472 1474 1472 1468 1468 1467 1467 1470 1471 1473 1476 1479 1480 1483 1485 1486 1487 1487 1487
1496 1493 1490 1487 1484 1481 1479 1478 1475 1474 1472 1471 1469 1468 1470 1473 1473 1472 1467 1452 1437 1438 1439 1435 1437 1432 1428 1432 1434 1439 1442 1440 1438 1437 1440 1442 1442 1444 1446 1450 1454 1457 1459 1462 1465 1470 1472 1468 1464 1465 1468 1470 1473 1473 1476 1479 1480 1483 1485 1488 1490 1486 1483 1480 1476 1472 1472 1479 1478 1472 1474 1471 1464 1465 1467 1466 1465 1464 1466 1468 1470 1473 1477 1480 1482 1483 1484 1487
1496 1492 1489 1486 1482 1480 1479 1477 1475 1474 1473 1472 1470 1470 1471 1472 1472 1470 1470 1461 1438 1429 1430 1428 1427 1422 1421 1427 1429 1435 1438 1435 1435 1433 1436 1439 1438 1440 1442 1446 1451 1454 1458 1460 1462 1470 1472 1464 1459 1462 1465 1468 1472 1472 1474 1477 1479 1481 1482 1487 1486 1481 1484 1484 1478 1474 1472 1475 1474 1472 1473 1471 1466 1466 1466 1464 1463 1463 1465 1466 1467 1469 1471 1473 1474 1477 1481 1484
1495 1492 1489 1484 1482 1479 1477 1477 1475 1474 1473 1471 1470 1471 1470 1470 1471 1468 1466 1460 1440 1424 1420 1419 1419 1416 1416 1420 1424 1428 1428 1429 1430 1428 1431 1435 1435 1438 1439 1441 1448 1453 1454 1454 1457 1462 1463 1457 1454 1459 1463 1466 1470 1472 1473 1477 1479 1478 1478 1481 1480 1479 1482 1483 1479 1476 1472 1471 1470 1471 1477 1474 1469 1470 1466 1462 1464 1465 1467 1469 1470 1470 1470 1472 1474 1477 1480 1480
1494 1492 1488 1484 1481 1477 1476 1476 1474 1473 1472 1470 1471 1470 1470 1470 1469 1467 1464 1458 1442 1423 1415 1414 1414 1412 1411 1416 1420 1421 1424 1424 1422 1423 1427 1429 1430 1434 1437 1439 1445 1450 1450 1452 1457 1460 1457 1454 1453 1458 1461 1463 1468 1470 1470 1473 1477 1478 1474 1472 1474 1477 1479 1479 1479 1479 1481 1481 1471 1471 1486 1481 1468 1469 1466 1462 1465 1465 1465 1467 1467 1468 1470 1472 1475 1476 1478 1479
1494 1491 1487 1484 1480 1476 1475 1474 1473 1472 1470 1470 1471 1469 1470 1469 1467 1467 1464 1462 1446 1420 1412 1413 1411 1410 1409 1414 1417 1420 1426 1421 1412 1419 1425 1426 1428 1430 1435 1438 1440 1444 1446 1450 1456 1455 1451 1451 1453 1457 1459 1462 1465 1466 1465 1468 1477 1478 1467 1465 1471 1474 1477 1478 1479 1482 1487 1486 1471 1469 1486 1486 1473 1469 1465 1463 1465 1463 1463 1463 1463 1465 1468 1468 1470 1472 1474 1476
1493 1490 1487 1484 1480 1476 1474 1473 1473 1472 1469 1470 1469 1468 1469 1466 1467 1466 1463 1465 1444 1412 1408 1412 1410 1410 1409 1412 1414 1418 1423 1415 1408 1415 1418 1421 1426 1427 1433 1437 1436 1439 1441 1450 1458 1449 1445 1451 1454 1455 1458 1461 1464 1463 1461 1463 1473 1471 1459 1462 1470 1471 1476 1477 1478 1482 1481 1478 1473 1468 1477 1485 1478 1467 1461 1462 1465 1466 1464 1462 1460 1462 1463 1463 1466 1468 1470 1472
1492 1489 1486 1483 1481 1478 1475 1473 1473 1471 1469 1468 1466 1467 1466 1464 1467 1464 1466 1466 1433 1402 1405 1410 1409 1410 1409 1413 1413 1412 1413 1409 1410 1412 1412 1420 1424 1424 1429 1431 1432 1436 1435 1445 1454 1443 1439 1447 1449 1450 1456 1459 1458 1456 1456 1459 1465 1462 1457 1462 1466 1468 1472 1472 1476 1480 1477 1479 1481 1471 1472 1484 1479 1462 1457 1461 1466 1469 1465 1460 1458 1457 1458 1459 1461 1464 1466 1468
1491 1488 1485 1482 1480 1478 1476 1474 1472 1470 1468 1466 1465 1466 1463 1465 1464 1461 1471 1463 1420 1400 1408 1408 1409 1412 1411 1415 1414 1410 1409 1408 1410 1411 1412 1418 1421 1421 1425 1425 1428 1435 1434 1436 1442 1439 1437 1439 1440 1445 1453 1453 1450 1450 1451 1455 1459 1457 1457 1461 1464 1467 1469 1471 1476 1476 1478 1485 1484 1472 1471 1482 1477 1460 1459 1464 1465 1466 1460 1455 1454 1452 1453 1454 1457 1460 1463 1465
1490 1487 1484 1480 1478 1476 1475 1474 1472 1470 1467 1464 1464 1464 1462 1464 1462 1465 1477 1454 1413 1406 1410 1407 1413 1414 1414 1417 1416 1413 1412 1410 1409 1410 1413 1416 1418 1420 1422 1424 1428 1433 1436 1436 1437 1438 1434 1433 1436 1440 1444 1442 1443 1447 1447 1450 1453 1454 1457 1462 1466 1468 1469 1473 1474 1475 1485 1486 1474 1467 1467 1477 1477 1459 1454 1459 1454 1452 1452 1452 1452 1450 1451 1453 1454 1457 1459 1462
1488 1485 1483 1480 1477 1475 1473 1473 1471 1469 1467 1464 1463 1463 1462 1462 1463 1470 1465 1433 1411 1414 1412 1412 1418 1416 1416 1418 1416 1414 1412 1411 1410 1411 1415 1414 1418 1420 1420 1425 1429 1434 1441 1440 1439 1438 1435 1437 1437 1434 1434 1435 1440 1446 1445 1446 1449 1453 1458 1463 1472 1476 1474 1477 1478 1481 1491 1483 1466 1461 1462 1472 1475 1455 1445 1446 1439 1438 1442 1444 1445 1445 1446 1447 1449 1451 1453 1456
1487 1484 1481 1479 1477 1475 1474 1472 1470 1468 1466 1463 1463 1462 1462 1465 1466 1462 1443 1420 1419 1424 1419 1421 1421 1417 1419 1417 1415 1413 1410 1411 1409 1410 1414 1413 1416 1417 1416 1421 1425 1436 1446 1442 1440 1441 1438 1436 1434 1431 1430 1431 1439 1447 1448 1448 1449 1454 1459 1465 1479 1489 1488 1489 1489 1486 1486 1477 1462 1458 1462 1467 1461 1443 1438 1438 1434 1433 1433 1432 1434 1435 1436 1438 1441 1444 1446 1450
1486 1483 1480 1478 1475 1474 1474 1471 1469 1468 1465 1464 1464 1461 1463 1468 1461 1446 1432 1424 1428 1429 1425 1425 1422 1419 1420 1416 1414 1411 1408 1409 1407 1408 1411 1411 1416 1416 1415 1415 1416 1427 1437 1437 1441 1445 1444 1438 1432 1432 1430 1426 1433 1443 1449 1451 1450 1454 1458 1464 1478 1491 1497 1499 1493 1486 1481 1472 1460 1458 1464 1463 1450 1436 1430 1429 1429 1427 1425 1425 1426 1426 1428 1429 1431 1435 1439 1444
1485 1482 1479 1477 1476 1475 1473 1471 1469 1467 1466 1464 1463 1463 1467 1467 1451 1437 1434 1432 1431 1430 1428 1427 1424 1420 1417 1415 1415 1412 1410 1410 1407 1408 1409 1410 1417 1419 1418 1417 1415 1419 1426 1433 1439 1442 1447 1444 1430 1426 1425 1422 1426 1431 1436 1442 1447 1450 1450 1457 1467 1473 1482 1489 1487 1483 1479 1470 1463 1464 1465 1456 1444 1433 1422 1418 1420 1419 1420 1421 1421 1422 1422 1423 1425 1429 1435 1439
1483 1481 1479 1477 1476 1475 1472 1471 1469 1467 1466 1464 1464 1466 1464 1457 1446 1440 1440 1437 1435 1435 1431 1427 1425 1421 1416 1415 1416 1414 1413 1413 1409 1409 1408 1409 1415 1418 1417 1417 1416 1417 1422 1432 1435 1433 1440 1435 1417 1414 1417 1417 1422 1424 1425 1435 1446 1447 1446 1454 1458 1453 1457 1469 1471 1468 1469 1471 1468 1465 1457 1441 1432 1426 1417 1415 1416 1415 1417 1417 1418 1420 1419 1420 1424 1427 1432 1434
1482 1479 1477 1476 1475 1473 1472 1470 1468 1467 1466 1465 1466 1466 1458 1449 1445 1445 1444 1440 1440 1440 1435 1429 1423 1423 1422 1419 1420 1419 1415 1414 1413 1410 1409 1409 1415 1419 1419 1416 1416 1416 1420 1426 1427 1428 1436 1429 1412 1413 1417 1414 1416 1419 1421 1430 1440 1445 1448 1449 1444 1439 1446 1462 1468 1461 1464 1476 1471 1458 1449 1437 1431 1425 1415 1416 1418 1416 1416 1416 1416 1417 1416 1418 1421 1423 1426 1428
1480 1476 1475 1475 1473 1472 1470 1469 1467 1466 1465 1466 1468 1463 1454 1448 1446 1445 1445 1443 1443 1442 1440 1437 1428 1426 1431 1429 1428 1425 1419 1416 1415 1414 1412 1412 1420 1430 1428 1422 1420 1420 1424 1426 1421 1418 1426 1425 1412 1412 1418 1413 1410 1415 1418 1420 1427 1439 1445 1438 1434 1441 1447 1456 1469 1469 1470 1479 1470 1454 1449 1443 1439 1432 1419 1416 1420 1417 1415 1415 1414 1413 1414 1415 1416 1418 1420 1421
1480 1477 1475 1474 1472 1470 1468 1466 1465 1464 1464 1466 1467 1461 1454 1450 1446 1445 1445 1445 1444 1441 1441 1443 1435 1430 1434 1436 1434 1429 1423 1422 1421 1420 1418 1417 1426 1436 1435 1430 1425 1423 1425 1427 1423 1416 1418 1424 1416 1407 1411 1412 1409 1417 1425 1421 1419 1426 1430 1426 1433 1450 1454 1455 1466 1471 1475 1480 1469 1454 1449 1441 1436 1429 1421 1419 1419 1415 1413 1413 1412 1412 1412 1412 1412 1413 1415 1417
1481 1477 1475 1474 1472 1468 1466 1464 1462 1462 1463 1466 1467 1462 1456 1452 1448 1446 1447 1446 1444 1442 1441 1441 1437 1433 1435 1436 1435 1431 1428 1428 1427 1424 1423 1424 1431 1436 1436 1435 1429 1424 1422 1422 1421 1416 1415 1424 1423 1408 1405 1411 1411 1419 1428 1427 1421 1421 1424 1425 1428 1437 1444 1449 1454 1456 1465 1473 1468 1460 1451 1434 1422 1417 1416 1417 1414 1411 1411 1410 1410 1408 1406 1407 1407 1408 1410 1413
1482 1478 1476 1474 1471 1468 1465 1462 1461 1462 1464 1465 1465 1461 1457 1454 1450 1448 1448 1447 1445 1443 1442 1440 1438 1438 1436 1434 1435 1434 1432 1431 1429 1425 1426 1431 1435 1435 1436 1436 1432 1426 1421 1417 1418 1417 1413 1420 1424 1413 1407 1413 1417 1417 1419 1422 1422 1423 1428 1430 1429 1430 1432 1440 1444 1441 1448 1460 1463 1464 1453 1426 1409 1407 1407 1408 1406 1405 1405 1404 1404 1402 1400 1401 1402 1402 1404 1407
1483 1481 1477 1473 1471 1468 1465 1463 1464 1465 1465 1464 1463 1461 1459 1456 1452 1449 1448 1447 1444 1443 1442 1440 1439 1439 1438 1436 1437 1436 1434 1434 1430 1427 1431 1436 1439 1439 1438 1437 1434 1429 1422 1420 1423 1424 1421 1422 1424 1417 1413 1415 1415 1408 1405 1407 1411 1415 1422 1424 1425 1428 1432 1444 1451 1439 1435 1444 1447 1454 1449 1420 1402 1401 1399 1399 1400 1398 1397 1398 1398 1396 1396 1397 1397 1397 1399 1401
1485 1483 1478 1473 1471 1468 1466 1466 1467 1467 1467 1467 1465 1464 1461 1457 1453 1451 1448 1446 1444 1442 1440 1440 1439 1438 1438 1438 1437 1437 1436 1435 1433 1431 1436 1440 1442 1443 1440 1437 1435 1430 1427 1429 1430 1428 1428 1430 1426 1419 1414 1412 1408 1402 1400 1400 1401 1405 1410 1412 1417 1423 1427 1439 1448 1438 1434 1438 1436 1443 1444 1416 1395 1395 1394 1393 1394 1392 1392 1393 1393 1392 1392 1393 1395 1395 1397 1398
1487 1484 1478 1474 1473 1470 1468 1469 1471 1470 1469 1468 1466 1464 1462 1459 1455 1452 1450 1448 1446 1444 1442 1441 1440 1440 1439 1438 1437 1438 1437 1437 1437 1437 1439 1442 1442 1442 1440 1437 1435 1431 1429 1432 1432 1428 1427 1429 1427 1421 1414 1409 1404 1402 1400 1400 1403 1406 1407 1406 1411 1417 1417 1422 1428 1429 1433 1435 1435 1444 1443 1414 1392 1391 1391 1389 1389 1389 1389 1389 1390 1390 1389 1390 1392 1393 1395 1397
1486 1483 1478 1476 1475 1472 1471 1474 1476 1474 1471 1468 1466 1463 1461 1460 1459 1456 1454 1451 1449 1447 1445 1443 1441 1441 1441 1439 1438 1439 1439 1439 1440 1440 1442 1443 1443 1442 1440 1437 1436 1434 1433 1435 1435 1432 1430 1430 1430 1428 1426 1422 1417 1413 1409 1404 1406 1410 1407 1405 1406 1409 1413 1415 1419 1427 1431 1427 1428 1439 1435 1411 1394 1392 1391 1390 1390 1389 1388 1388 1388 1388 1387 1387 1388 1390 1393 1394
1486 1483 1479 1477 1476 1475 1475 1478 1480 1478 1474 1471 1469 1465 1462 1461 1461 1460 1457 1453 1451 1450 1448 1446 1443 1442 1442 1441 1441 1441 1441 1442 1443 1442 1443 1444 1443 1442 1441 1438 1437 1436 1436 1435 1433 1432 1433 1433 1433 1433 1435 1435 1433 1430 1425 1419 1418 1415 1408 1404 1403 1405 1410 1413 1418 1427 1430 1423 1420 1424 1421 1407 1396 1393 1392 1392 1393 1391 1388 1386 1387 1387 1385 1385 1386 1388 1390 1391
1489 1487 1482 1479 1476 1476 1478 1479 1480 1480 1478 1476 1473 1467 1464 1463 1461 1461 1458 1454 1452 1452 1450 1448 1445 1444 1445 1445 1444 1445 1444 1443 1444 1444 1444 1446 1445 1444 1443 1440 1439 1438 1437 1435 1433 1432 1435 1435 1434 1436 1438 1440 1441 1438 1432 1430 1431 1426 1417 1409 1404 1402 1403 1407 1412 1416 1418 1420 1419 1412 1408 1405 1398 1394 1393 1392 1392 1392 1388 1385 1386 1385 1383 1384 1384 1385 1386 1387
1492 1491 1487 1485 1481 1479 1479 1479 1480 1481 1479 1478 1476 1471 1468 1466 1462 1461 1460 1458 1456 1455 1452 1450 1449 1449 1451 1450 1449 1449 1448 1445 1445 1446 1447 1447 1446 1445 1443 1440 1440 1439 1437 1436 1434 1433 1437 1438 1435 1438 1440 1441 1441 1437 1430 1431 1433 1429 1423 1416 1407 1402 1400 1401 1403 1401 1404 1415 1416 1404 1401 1405 1400 1394 1392 1390 1390 1390 1387 1384 1383 1382 1381 1382 1382 1383 1384 1385
1493 1491 1490 1489 1488 1485 1483 1481 1481 1481 1479 1478 1476 1472 1470 1469 1466 1464 1463 1460 1460 1459 1456 1454 1454 1454 1455 1453 1452 1452 1451 1449 1448 1448 1448 1449 1447 1446 1444 1440 1440 1440 1438 1438 1437 1436 1440 1441 1437 1438 1441 1439 1437 1434 1428 1428 1428 1424 1421 1417 1410 1405 1399 1394 1394 1394 1396 1403 1402 1396 1399 1402 1397 1392 1390 1386 1385 1384 1381 1380 1380 1380 1380 1381 1381 1382 1382 1382
1493 1492 1490 1489 1489 1487 1486 1484 1482 1481 1478 1476 1475 1473 1472 1471 1469 1466 1465 1463 1462 1460 1460 1461 1459 1457 1456 1455 1454 1453 1452 1452 1452 1451 1450 1450 1450 1450 1447 1444 1441 1440 1439 1440 1439 1438 1441 1441 1437 1438 1440 1436 1433 1431 1427 1426 1425 1421 1417 1414 1409 1404 1398 1392 1391 1392 1392 1393 1392 1392 1397 1397 1390 1386 1384 1380 1379 1378 1377 1378 1378 1378 1379 1379 1380 1380 1380 1379
1493 1492 1491 1490 1488 1485 1484 1483 1482 1481 1478 1476 1476 1474 1473 1472 1469 1467 1465 1465 1464 1461 1460 1462 1461 1459 1457 1456 1455 1455 1452 1453 1454 1454 1452 1452 1452 1451 1449 1447 1444 1443 1443 1443 1441 1440 1441 1441 1437 1438 1441 1437 1430 1427 1426 1425 1425 1422 1415 1410 1406 1403 1398 1393 1391 1391 1392 1394 1392 1391 1395 1395 1387 1381 1379 1377 1376 1377 1378 1377 1376 1377 1377 1378 1379 1378 1378 1378
1493 1492 1491 1490 1487 1484 1483 1482 1481 1481 1479 1477 1477 1475 1473 1472 1469 1468 1465 1462 1462 1462 1461 1461 1460 1459 1458 1456 1456 1455 1452 1452 1453 1452 1451 1452 1452 1450 1448 1447 1446 1446 1446 1445 1443 1442 1442 1442 1438 1439 1444 1439 1429 1428 1427 1423 1419 1414 1407 1402 1401 1399 1396 1391 1388 1387 1388 1391 1392 1391 1391 1389 1384 1381 1380 1377 1375 1376 1376 1375 1375 1376 1376 1377 1378 1377 1376 1376
1493 1491 1491 1491 1487 1484 1483 1482 1481 1482 1480 1477 1476 1475 1475 1473 1470 1470 1467 1462 1460 1461 1462 1461 1460 1459 1458 1457 1456 1454 1453 1451 1450 1449 1448 1448 1447 1447 1447 1446 1445 1447 1448 1447 1446 1444 1442 1441 1439 1441 1445 1439 1430 1429 1429 1424 1419 1408 1397 1396 1395 1390 1387 1385 1382 1380 1379 1382 1385 1382 1378 1377 1377 1379 1380 1378 1376 1375 1373 1373 1374 1375 1375 1376 1376 1375 1374 1374